This is the latest recevied weather packets stored in our database for station/object DL3NDS-WX. If no packets are shown the sender has not sent any weather packets the latest 1 day(s).
| Time | Temp. | Humidity | Pressure | Rain* | Wind** | Luminosity | Snow |
|---|---|---|---|---|---|---|---|
| 1777978005 | 21.67° C | 58% | 1009.1 hPa | 0 mm | 1.34 m/s, 17° | 299 W/m² | - |
| 1777977951 | 21.67° C | 57% | 1009.1 hPa | 0 mm | 1.79 m/s, 54° | 726 W/m² | - |
| 1777977884 | 21.67° C | 56% | 1009.1 hPa | 0 mm | 1.79 m/s, 25° | 773 W/m² | - |
| 1777977823 | 22.22° C | 57% | 1009.1 hPa | 0 mm | 1.34 m/s, 25° | 872 W/m² | - |
| 1777977762 | 22.22° C | 56% | 1009.1 hPa | 0 mm | 1.79 m/s, 329° | 933 W/m² | - |
| 1777977700 | 22.22° C | 55% | 1009.1 hPa | 0 mm | 0.89 m/s, 306° | 1000 W/m² | - |
| 1777977640 | 21.67° C | 52% | 1009.1 hPa | 0 mm | 0 m/s | 1000 W/m² | - |
| 1777977578 | 21.67° C | 51% | 1009.1 hPa | 0 mm | 0.45 m/s, 211° | 993 W/m² | - |
| 1777977517 | 21.67° C | 51% | 1009.1 hPa | 0 mm | 0.89 m/s, 211° | 981 W/m² | - |
| 1777977456 | 21.67° C | 51% | 1009.1 hPa | 0 mm | 1.34 m/s, 211° | 963 W/m² | - |
| 1777977394 | 21.67° C | 50% | 1009.1 hPa | 0 mm | 1.34 m/s, 273° | 958 W/m² | - |
| 1777977333 | 21.67° C | 51% | 1009.1 hPa | 0 mm | 0.89 m/s, 301° | 940 W/m² | - |
| 1777977272 | 21.67° C | 52% | 1009 hPa | 0 mm | 1.34 m/s, 303° | 946 W/m² | - |
| 1777977211 | 21.67° C | 52% | 1009.2 hPa | 0 mm | 1.79 m/s, 304° | 939 W/m² | - |
| 1777977167 | 21.67° C | 52% | 1009.1 hPa | 0 mm | 1.34 m/s, 312° | 928 W/m² | - |
| 1777977133 | 21.67° C | 57% | 1009.2 hPa | 0 mm | 1.34 m/s, 325° | 904 W/m² | - |
| 1777977026 | 21.67° C | 56% | 1009.2 hPa | 0 mm | 0.45 m/s, 14° | 909 W/m² | - |
| 1777976964 | 21.67° C | 54% | 1009.2 hPa | 0 mm | 0 m/s | 909 W/m² | - |
| 1777976903 | 21.67° C | 54% | 1009.2 hPa | 0 mm | 0.45 m/s, 322° | 935 W/m² | - |
| 1777976842 | 21.67° C | 55% | 1009.2 hPa | 0 mm | 0.89 m/s, 322° | 951 W/m² | - |
| 1777976780 | 21.67° C | 56% | 1009.3 hPa | 0 mm | 0.45 m/s, 11° | 937 W/m² | - |
| 1777976720 | 21.67° C | 56% | 1009.3 hPa | 0 mm | 0.45 m/s, 7° | 914 W/m² | - |
| 1777976658 | 21.67° C | 54% | 1009.3 hPa | 0 mm | 0.89 m/s, 114° | 891 W/m² | - |
| 1777976596 | 21.67° C | 55% | 1009.3 hPa | 0 mm | 0.89 m/s, 91° | 925 W/m² | - |
| 1777976534 | 21.67° C | 54% | 1009.2 hPa | 0 mm | 1.34 m/s, 90° | 914 W/m² | - |
* Rain latest hour (hover to see other rain measurements)
** Current wind speed in m/s (hover to see current wind gust speed)